Latest Weather Observations for Cape Jaffa

IDS60801

Issued at 11:02 am CDT Saturday 20 December 2014 (issued every 30 minutes, with the page automatically refreshed every 10 minutes)

About weather observations | Map of weather stations | Latest weather observations for SA | Other Formats
Station Details ID: 026095 Name: THE LIMESTONE Lat: -36.97 Lon: 139.72 Height: 17.0 m
Data from the previous 72 hours. | See also: Recent months at Cape Jaffa
Date/Time
CDT
Temp
°C
App
Temp
°C
Dew
Point
Rel
Hum
%
Delta-T
°C
Wind Press
QNH
hPa
Press
MSL
hPa
Rain
since 9 am
mm
Dir
 
Spd
km/h
Gust
km/h
Spd
kts
Gust
kts
20/11:00am 18.6 15.7 9.7 56 4.7 W 15 20 8 11 1020.1 1020.0 0.0
20/10:30am 18.2 15.4 10.1 59 4.3 SW 15 22 8 12 1020.3 1020.2 0.0
20/10:00am 17.9 16.1 9.5 58 4.4 WSW 9 15 5 8 1020.4 1020.3 0.0
20/09:30am 17.6 15.0 9.2 58 4.4 WSW 13 20 7 11 1020.6 1020.5 0.0
20/09:00am 18.0 15.9 9.9 59 4.3 SW 11 17 6 9 1020.6 1020.5 0.0
20/08:30am 17.2 14.6 9.4 60 4.1 WSW 13 17 7 9 1020.3 1020.2 0.0
20/08:00am 16.2 15.1 9.8 66 3.3 W 6 9 3 5 1020.2 1020.1 0.0
20/07:30am 13.9 13.8 9.5 75 2.2 CALM 0 0 0 0 1019.7 1019.6 0.0
20/07:00am 12.9 12.0 9.4 79 1.8 E 4 6 2 3 1019.3 1019.2 0.0
20/06:30am 11.4 10.3 8.4 82 1.5 E 4 6 2 3 1019.1 1019.0 0.0
20/06:00am 11.3 10.2 8.5 83 1.4 ENE 4 6 2 3 1018.6 1018.5 0.0
20/05:30am 11.5 11.2 8.5 82 1.5 CALM 0 4 0 2 1018.5 1018.4 0.0
20/05:00am 11.7 11.3 8.4 80 1.6 CALM 0 0 0 0 1018.4 1018.3 0.0
20/04:30am 12.1 11.9 9.1 82 1.5 CALM 0 6 0 3 1018.3 1018.2 0.0
20/04:00am 11.5 11.2 8.5 82 1.5 CALM 0 0 0 0 1018.4 1018.3 0.0
20/03:30am 11.2 10.7 7.7 79 1.7 CALM 0 2 0 1 1018.7 1018.6 0.0
20/03:00am 12.0 11.4 8.8 81 1.6 ENE 2 4 1 2 1018.8 1018.7 0.0
20/02:30am 12.1 11.7 8.4 78 1.8 CALM 0 0 0 0 1019.0 1018.9 0.0
20/02:00am 12.5 12.3 9.0 79 1.8 CALM 0 0 0 0 1019.2 1019.1 0.0
20/01:30am 12.5 12.2 8.6 77 1.9 CALM 0 4 0 2 1019.6 1019.5 0.0
20/01:00am 13.1 12.9 9.2 77 2.0 CALM 0 0 0 0 1020.1 1020.0 0.0
20/12:30am 12.9 11.8 8.4 74 2.2 S 4 6 2 3 1020.3 1020.2 0.0
20/12:00am 13.3 11.9 8.8 74 2.3 SSW 6 9 3 5 1020.5 1020.4 0.0
 
Date/Time
CDT
Temp
°C
App
Temp
°C
Dew
Point
Rel
Hum
%
Delta-T
°C
Wind Press
QNH
hPa
Press
MSL
hPa
Rain
since 9 am
mm
Dir
 
Spd
km/h
Gust
km/h
Spd
kts
Gust
kts
19/11:30pm 13.8 12.3 9.0 73 2.4 SW 7 9 4 5 1020.8 1020.7 0.0
19/11:00pm 13.7 11.8 9.2 74 2.3 SSW 9 11 5 6 1021.0 1020.9 0.0
19/10:30pm 14.0 12.1 9.0 72 2.5 SSW 9 9 5 5 1021.1 1021.0 0.0
19/10:00pm 14.3 12.1 9.3 72 2.6 SSW 11 15 6 8 1020.9 1020.8 0.0
19/09:30pm 14.8 11.8 9.2 69 2.9 SSW 15 19 8 10 1020.8 1020.7 0.0
19/09:00pm 15.0 12.0 9.1 68 3.0 SW 15 20 8 11 1020.7 1020.6 0.0
19/08:30pm 15.3 12.7 9.4 68 3.0 SW 13 17 7 9 1020.7 1020.6 0.0
19/08:00pm 16.1 13.2 9.5 65 3.4 SW 15 19 8 10 1020.8 1020.7 0.0
19/07:30pm 16.6 12.9 9.3 62 3.8 SW 19 22 10 12 1020.6 1020.5 0.0
19/07:00pm 17.0 13.3 9.4 61 4.0 SW 19 24 10 13 1020.5 1020.4 0.0
19/06:30pm 16.6 12.7 8.8 60 4.0 SW 19 24 10 13 1020.4 1020.3 0.0
19/06:00pm 17.1 12.6 8.5 57 4.4 SW 22 28 12 15 1020.2 1020.1 0.0
19/05:30pm 17.5 13.5 8.4 55 4.7 SW 19 24 10 13 1020.3 1020.2 0.0
19/05:00pm 17.6 13.5 8.5 55 4.7 SW 20 28 11 15 1020.3 1020.2 0.0
19/04:30pm 18.6 14.2 8.8 53 5.1 SW 22 30 12 16 1020.4 1020.3 0.0
19/04:00pm 18.5 14.0 8.5 52 5.2 SW 22 30 12 16 1020.4 1020.3 0.0
19/03:30pm 19.2 15.1 8.8 51 5.4 SW 20 28 11 15 1020.4 1020.3 0.0
19/03:00pm 18.6 14.2 9.1 54 5.0 SW 22 33 12 18 1020.5 1020.4 0.0
19/02:30pm 18.7 13.8 8.4 51 5.3 WSW 24 30 13 16 1020.3 1020.2 0.0
19/02:00pm 18.6 14.3 8.0 50 5.4 WSW 20 33 11 18 1020.4 1020.3 0.0
19/01:30pm 18.1 14.0 7.8 51 5.2 SW 19 26 10 14 1020.6 1020.5 0.0
19/01:00pm 19.2 15.3 8.5 50 5.6 SW 19 30 10 16 1020.5 1020.4 0.0
19/12:30pm 17.9 13.7 7.3 50 5.3 WSW 19 28 10 15 1020.7 1020.6 0.0
19/12:00pm 17.6 13.7 7.1 50 5.2 SW 17 26 9 14 1020.6 1020.5 0.0
19/11:30am 17.7 13.4 7.2 50 5.2 SW 19 26 10 14 1020.5 1020.4 0.0
19/11:00am 18.3 14.2 7.7 50 5.4 SW 19 26 10 14 1020.4 1020.3 0.0
19/10:30am 17.5 13.6 7.3 51 5.1 SW 17 24 9 13 1020.3 1020.2 0.0
19/10:00am 16.9 13.1 7.5 54 4.7 SW 17 24 9 13 1020.1 1020.0 0.0
19/09:30am 17.0 13.2 7.4 53 4.8 SW 17 22 9 12 1020.0 1019.9 0.0
19/09:00am 16.9 13.3 8.3 57 4.4 SW 17 22 9 12 1019.8 1019.7 0.6
19/08:30am 16.4 12.2 7.3 55 4.5 SSW 19 24 10 13 1019.4 1019.3 0.6
19/08:00am 15.5 11.4 7.8 60 3.8 SW 19 24 10 13 1019.1 1019.0 0.6
19/07:30am 15.0 11.3 8.0 63 3.5 SW 17 20 9 11 1018.7 1018.6 0.6
19/07:00am 14.3 10.9 7.6 64 3.3 SW 15 20 8 11 1018.2 1018.1 0.6
19/06:30am 13.8 11.2 7.8 67 3.0 SW 11 15 6 8 1017.9 1017.8 0.6
19/06:00am 13.3 10.4 8.2 71 2.5 SW 13 19 7 10 1017.6 1017.5 0.6
19/05:30am 13.2 10.2 7.9 70 2.6 SW 13 19 7 10 1017.3 1017.2 0.6
19/05:00am 13.4 10.0 7.6 68 2.8 SSW 15 19 8 10 1017.1 1017.0 0.6
19/04:30am 14.4 10.5 8.6 68 2.9 SW 19 24 10 13 1017.0 1016.9 0.6
19/04:00am 14.2 10.7 8.6 69 2.8 SW 17 22 9 12 1017.0 1016.9 0.6
19/03:30am 13.5 10.0 7.1 65 3.1 SW 15 19 8 10 1016.7 1016.6 0.6
19/03:00am 13.8 10.3 7.3 65 3.2 SW 15 20 8 11 1016.6 1016.5 0.6
19/02:30am 14.1 10.5 8.5 69 2.8 SW 17 22 9 12 1016.7 1016.6 0.6
19/02:00am 14.2 10.4 7.5 64 3.3 SW 17 20 9 11 1016.7 1016.6 0.6
19/01:30am 14.3 10.2 8.0 66 3.1 SW 19 24 10 13 1016.8 1016.7 0.6
19/01:00am 14.4 10.3 7.7 64 3.3 SW 19 24 10 13 1016.8 1016.7 0.6
19/12:30am 14.1 10.2 7.2 63 3.4 SW 17 22 9 12 1016.8 1016.7 0.6
19/12:00am 14.3 10.1 7.4 63 3.4 SW 19 24 10 13 1016.7 1016.6 0.6
 
Date/Time
CDT
Temp
°C
App
Temp
°C
Dew
Point
Rel
Hum
%
Delta-T
°C
Wind Press
QNH
hPa
Press
MSL
hPa
Rain
since 9 am
mm
Dir
 
Spd
km/h
Gust
km/h
Spd
kts
Gust
kts
18/11:30pm 15.0 11.3 7.8 62 3.6 SW 17 22 9 12 1016.5 1016.4 0.6
18/11:00pm 14.3 10.1 7.4 63 3.4 SW 19 24 10 13 1016.4 1016.3 0.6
18/10:30pm 14.6 9.6 6.4 58 4.0 SW 22 30 12 16 1016.2 1016.1 0.6
18/10:00pm 14.7 9.9 7.3 61 3.6 SW 22 28 12 15 1016.0 1015.9 0.6
18/09:30pm 14.7 10.4 7.0 60 3.8 SW 19 28 10 15 1015.8 1015.7 0.6
18/09:00pm 14.7 10.3 7.3 61 3.6 SW 20 28 11 15 1015.4 1015.3 0.6
18/08:30pm 15.0 9.7 6.8 58 4.0 SW 24 32 13 17 1015.1 1015.0 0.6
18/08:00pm 15.4 10.6 7.2 58 4.0 SW 22 30 12 16 1014.9 1014.8 0.6
18/07:30pm 16.1 10.7 8.1 59 4.0 SW 26 33 14 18 1014.4 1014.3 0.6
18/07:00pm 16.7 10.8 7.4 54 4.7 SW 28 37 15 20 1013.9 1013.8 0.6
18/06:30pm 17.0 10.8 7.9 55 4.6 SW 30 37 16 20 1013.5 1013.4 0.6
18/06:00pm 17.6 11.0 7.6 52 5.1 SW 32 39 17 21 1013.1 1013.0 0.6
18/05:30pm 18.0 11.4 7.7 51 5.2 SW 32 39 17 21 1012.8 1012.7 0.6
18/05:00pm 18.6 11.9 8.0 50 5.4 WSW 33 39 18 21 1012.6 1012.5 0.6
18/04:30pm 18.8 11.5 7.3 47 5.8 WSW 35 44 19 24 1012.5 1012.4 0.6
18/04:00pm 18.2 11.2 7.0 48 5.6 WSW 33 43 18 23 1012.1 1012.0 0.6
18/03:30pm 19.2 11.9 7.0 45 6.2 WSW 35 43 19 23 1011.9 1011.8 0.6
18/03:00pm 19.5 12.4 7.9 47 6.0 WSW 35 44 19 24 1011.7 1011.6 0.6
18/02:30pm 19.2 11.6 7.6 47 5.9 WSW 37 46 20 25 1011.0 1010.9 0.6
18/02:00pm 19.3 11.5 8.3 49 5.7 WSW 39 50 21 27 1010.7 1010.6 0.6
18/01:30pm 18.9 12.5 9.4 54 5.0 WSW 33 44 18 24 1010.6 1010.5 0.6
18/01:00pm 18.4 12.1 11.0 62 4.0 WSW 35 44 19 24 1010.5 1010.4 0.6
18/12:30pm 17.7 12.0 11.0 65 3.6 WSW 32 41 17 22 1010.2 1010.1 0.6
18/12:00pm 15.7 10.4 11.3 75 2.4 WSW 30 43 16 23 1009.9 1009.8 0.6
18/11:30am 15.5 8.9 11.5 77 2.2 WSW 37 52 20 28 1009.3 1009.2 0.4
18/11:00am 17.3 11.8 12.4 73 2.7 WSW 33 44 18 24 1008.8 1008.7 0.2
18/10:30am 15.7 11.5 13.4 86 1.3 W 28 37 15 20 1008.6 1008.5 0.2
18/10:05am 17.4 11.9 12.3 72 2.8 WNW 33 54 18 29 1008.3 1008.2 0.0
18/10:00am 18.7 13.3 12.2 66 3.6 WNW 32 41 17 22 1008.2 1008.1 0.0
18/09:30am 18.3 12.4 12.3 68 3.3 WNW 35 46 19 25 1008.2 1008.1 0.0
18/09:00am 18.6 13.3 12.4 67 3.5 WNW 32 41 17 22 1007.9 1007.8 0.2
18/08:30am 17.8 13.3 12.7 72 2.9 WNW 28 39 15 21 1007.5 1007.4 0.2
18/08:00am 17.2 13.2 12.9 76 2.4 WNW 26 33 14 18 1007.3 1007.2 0.2
18/07:30am 16.3 12.0 12.1 76 2.3 WNW 26 33 14 18 1007.1 1007.0 0.2
18/07:08am 15.4 10.8 12.2 81 1.7 WNW 28 48 15 26 1007.0 1006.9 0.2
18/07:00am 16.5 13.1 11.2 71 2.9 WNW 20 32 11 17 1006.9 1006.8 0.0
18/06:30am 15.9 11.7 9.6 66 3.3 WNW 22 32 12 17 1006.7 1006.6 0.0
18/06:00am 15.2 10.6 9.6 69 2.9 WNW 24 33 13 18 1006.5 1006.4 0.0
18/05:30am 16.0 12.2 11.0 72 2.7 NW 22 32 12 17 1006.2 1006.1 0.0
18/05:00am 15.7 12.4 10.9 73 2.6 NW 19 24 10 13 1006.1 1006.0 0.0
18/04:30am 15.9 12.5 10.4 70 2.9 NW 19 26 10 14 1005.8 1005.7 0.0
18/04:00am 15.0 11.8 10.0 72 2.6 NW 17 22 9 12 1005.7 1005.6 0.0
18/03:30am 15.3 11.8 10.1 71 2.7 NW 19 24 10 13 1006.2 1006.1 0.0
18/03:00am 14.9 11.6 9.7 71 2.7 NW 17 22 9 12 1006.3 1006.2 0.0
18/02:30am 14.5 11.9 9.5 72 2.6 NW 13 17 7 9 1006.4 1006.3 0.0
18/02:00am 14.4 11.7 9.0 70 2.7 NW 13 19 7 10 1006.7 1006.6 0.0
18/01:30am 14.3 11.5 8.5 68 2.9 NW 13 17 7 9 1006.8 1006.7 0.0
18/01:00am 14.2 11.4 8.4 68 2.9 NNW 13 19 7 10 1007.1 1007.0 0.0
18/12:30am 14.5 12.2 8.9 69 2.9 NW 11 15 6 8 1007.7 1007.6 0.0
18/12:00am 14.7 11.9 8.6 67 3.1 NNW 13 17 7 9 1007.8 1007.7 0.0
 
Date/Time
CDT
Temp
°C
App
Temp
°C
Dew
Point
Rel
Hum
%
Delta-T
°C
Wind Press
QNH
hPa
Press
MSL
hPa
Rain
since 9 am
mm
Dir
 
Spd
km/h
Gust
km/h
Spd
kts
Gust
kts
17/11:30pm 14.1 11.7 8.5 69 2.8 N 11 13 6 7 1007.7 1007.6 0.0
17/11:00pm 13.0 10.8 7.7 70 2.6 NNW 9 13 5 7 1007.9 1007.8 0.0
17/10:30pm 13.2 11.6 7.9 70 2.6 NNW 6 7 3 4 1008.1 1008.0 0.0
17/10:00pm 13.4 11.8 7.8 69 2.8 N 6 7 3 4 1008.1 1008.0 0.0
17/09:30pm 13.7 12.4 7.7 67 3.0 NNW 4 6 2 3 1008.2 1008.1 0.0
17/09:00pm 14.4 13.2 7.9 65 3.2 NW 4 4 2 2 1008.1 1008.0 0.0
17/08:30pm 14.5 12.9 8.0 65 3.2 WNW 6 7 3 4 1008.4 1008.3 0.0
17/08:00pm 15.5 13.5 7.3 58 4.1 NW 7 11 4 6 1008.5 1008.4 0.0
17/07:30pm 16.4 14.5 7.6 56 4.4 NNW 7 11 4 6 1008.4 1008.3 0.0
17/07:00pm 17.2 15.0 7.8 54 4.8 WNW 9 15 5 8 1008.4 1008.3 0.0
17/06:30pm 17.8 14.8 7.8 52 5.1 WNW 13 17 7 9 1008.0 1007.9 0.0
17/06:00pm 17.6 14.5 7.1 50 5.3 NW 13 22 7 12 1008.1 1008.0 0.0
17/05:30pm 17.9 14.7 7.0 49 5.5 NW 13 20 7 11 1008.1 1008.0 0.0
17/05:00pm 17.8 13.9 7.2 50 5.3 N 17 24 9 13 1008.2 1008.1 0.0
17/04:30pm 18.1 15.4 7.2 49 5.5 WNW 11 17 6 9 1008.4 1008.3 0.0
17/04:00pm 17.7 13.7 6.6 48 5.5 WNW 17 30 9 16 1008.9 1008.8 0.0
17/03:30pm 18.4 14.9 7.2 48 5.7 W 15 24 8 13 1009.1 1009.0 0.0
17/03:00pm 18.4 13.9 6.3 45 6.0 W 19 28 10 15 1009.3 1009.2 0.0
17/02:30pm 18.4 14.3 6.3 45 6.0 WNW 17 30 9 16 1009.4 1009.3 0.0
17/02:00pm 17.8 13.2 5.4 44 6.0 WNW 19 30 10 16 1009.6 1009.5 0.0
17/01:30pm 18.2 13.7 6.1 45 6.0 WNW 19 28 10 15 1009.8 1009.7 0.0
17/01:00pm 18.3 13.6 5.2 42 6.3 WNW 19 28 10 15 1010.1 1010.0 0.0
17/12:30pm 18.1 13.7 5.0 42 6.3 WNW 17 24 9 13 1010.3 1010.2 0.0
17/12:00pm 17.8 13.2 5.7 45 5.9 NW 19 24 10 13 1010.3 1010.2 0.0
17/11:30am 17.2 13.0 5.5 46 5.7 WNW 17 28 9 15 1010.4 1010.3 0.0

Other Formats:

Comma delimited format used in spreadsheet applications
http://www.bom.gov.au/fwo/IDS60801/IDS60801.94813.axf

JavaScript Object Notation format (JSON) in row-major order
http://www.bom.gov.au/fwo/IDS60801/IDS60801.94813.json